Weather History for KTVL - May, 2013

Change the Weather History Date:

Friday, May 10, 2013

  Actual Average Record
Temperature  
Mean Temperature 55 °F 46 °F  
Max Temperature 73 °F 62 °F 74 °F (1987)
Min Temperature 37 °F 31 °F 18 °F (1980)
Degree Days  
Heating Degree Days 10 18  
Month to date heating degree days 165 197  
Since 1 July heating degree days 6549 7087  
Cooling Degree Days 0 0  
Month to date cooling degree days 0 0  
Year to date cooling degree days 0 0  
Growing Degree Days 6 (Base 50)    
Moisture  
Dew Point 38 °F    
Average Humidity 55    
Maximum Humidity 85    
Minimum Humidity 25    
Precipitation  
Precipitation 0.00 in - 0.80 in (1967)
Month to date precipitation 1.57  
Year to date precipitation 4.51  
Sea Level Pressure  
Sea Level Pressure 30.22 in    
Wind  
Wind Speed 3 mph (NE)    
Max Wind Speed 13 mph    
Max Gust Speed 17 mph    
Visibility 10 miles    
Events      
T = Trace of Precipitation, MM = Missing Value Source: NWS Daily Summary

Daily Weather History Graph

Daily Weather History Graph

Search for Another Location

Airport or City:

Trip Planner

Search our weather history database for the weather conditions in past years. The results will help you decide how hot, cold, wet, or windy it might be!

Date:

Astronomy

May. 10, 2013 Rise Set
Actual Time 5:51 AM PDT 8:01 PM PDT
Civil Twilight 5:22 AM PDT 8:31 PM PDT
Nautical Twilight 4:46 AM PDT 9:07 PM PDT
Astronomical Twilight 4:06 AM PDT 9:47 PM PDT
Moon 6:19 AM PDT (5/10) 8:55 PM PDT (5/10)
Length of Visible Light 15h 08m
Length of Day
14h 09m
New Moon, 1% of the Moon is Illuminated
May 10
New Moon
May 17
First Quarter
May 24
Full
May 31
Last Quarter
Jun 8
New

Hourly Weather History & Observations

Time (PDT) Temp. Windchill Dew Point Humidity Pressure Visibility Wind Dir Wind Speed Gust Speed Precip Events Conditions
1:53 AM 44.1 °F 42.5 °F 39.0 °F 82% 30.19 in 10.0 mi South 3.5 mph - N/A   Clear
2:53 AM 42.1 °F 40.2 °F 37.9 °F 85% 30.20 in 10.0 mi South 3.5 mph - N/A   Clear
3:53 AM 41.0 °F - 36.0 °F 82% 30.20 in 10.0 mi Calm Calm - N/A   Clear
6:53 AM 39.0 °F - 35.1 °F 86% 30.26 in 10.0 mi Calm Calm - N/A   Clear
7:53 AM 48.0 °F - 39.0 °F 71% 30.26 in 10.0 mi Calm Calm - N/A   Clear
8:53 AM 55.9 °F - 39.0 °F 53% 30.24 in 10.0 mi Calm Calm - N/A   Clear
10:53 AM 63.0 °F - 42.1 °F 46% 30.23 in 10.0 mi Variable 4.6 mph - N/A   Clear
11:53 AM 66.9 °F - 41.0 °F 39% 30.22 in 10.0 mi NNE 5.8 mph - N/A   Clear
12:53 PM 69.1 °F - 39.0 °F 33% 30.21 in 10.0 mi Variable 4.6 mph - N/A   Partly Cloudy
1:53 PM 71.1 °F - 39.0 °F 31% 30.21 in 10.0 mi NNE 6.9 mph - N/A   Partly Cloudy
2:53 PM 72.0 °F - 36.0 °F 27% 30.21 in 10.0 mi NE 4.6 mph - N/A   Clear
3:53 PM 72.0 °F - 34.0 °F 25% 30.19 in 10.0 mi Variable 3.5 mph - N/A   Partly Cloudy
4:53 PM 72.0 °F - 33.1 °F 24% 30.19 in 10.0 mi Variable 4.6 mph - N/A   Clear
5:53 PM 70.0 °F - 32.0 °F 25% 30.19 in 10.0 mi Variable 3.5 mph - N/A   Clear
6:53 PM 64.0 °F - 36.0 °F 35% 30.21 in 10.0 mi North 3.5 mph - N/A   Clear
7:53 PM 59.0 °F - 41.0 °F 51% 30.22 in 10.0 mi Calm Calm - N/A   Clear
8:53 PM 54.0 °F - 39.9 °F 59% 30.24 in 10.0 mi Calm Calm - N/A   Clear
9:53 PM 52.0 °F - 39.9 °F 63% 30.26 in 10.0 mi Calm Calm - N/A   Clear
10:53 PM 50.0 °F - 41.0 °F 71% 30.26 in 10.0 mi Calm Calm - N/A   Clear
11:53 PM 48.0 °F - 39.9 °F 74% 30.26 in 10.0 mi SSW 3.5 mph - N/A   Clear